La Crosse, WI

11:48 AM CST on December 14, 2017 (GMT -0600)
La Crosse Municipal

Weather History for KLSE - December, 2012

Change the Weather History Date:

Friday, December 21, 2012

  Actual Average Record
Temperature  
Mean Temperature 16 °F 20 °F  
Max Temperature 22 °F 27 °F 60 °F (1877)
Min Temperature 9 °F 12 °F -29 °F (1872)
Degree Days  
Heating Degree Days 49 45  
Month to date heating degree days 699 881  
Since 1 July heating degree days 2188 2381  
Cooling Degree Days 0 0  
Month to date cooling degree days 0 0  
Year to date cooling degree days 1083 782  
Moisture  
Dew Point 8 °F    
Average Humidity 75    
Maximum Humidity 92    
Minimum Humidity 57    
Precipitation  
Precipitation 0.00 in 0.04 in 0.80 in (1920)
Month to date precipitation 1.78 1.00  
Year to date precipitation 26.48 32.70  
Snow  
Snow 0.00 in 0.30 in 9.00 in (1920)
Month to date snowfall 14.1 8.1  
Since 1 July snowfall 14.2 12.4  
Snow Depth 5.00 in    
Sea Level Pressure  
Sea Level Pressure 30.18 in    
Wind  
Wind Speed 13 mph (NW)    
Max Wind Speed 30 mph    
Max Gust Speed 36 mph    
Visibility 10 miles    
Events      
T = Trace of Precipitation, MM = Missing Value Source: NWS Daily Summary

Daily Weather History Graph

Daily Weather History Graph

Search for Another Location

Airport or City:

Trip Planner

Search our weather history database for the weather conditions in past years. The results will help you decide how hot, cold, wet, or windy it might be!

Date:

Astronomy

Dec. 21, 2012 Rise Set
Actual Time 7:36 AM CST 4:30 PM CST
Civil Twilight 7:03 AM CST 5:03 PM CST
Nautical Twilight 6:26 AM CST 5:40 PM CST
Astronomical Twilight 5:51 AM CST 6:15 PM CST
Moon 12:25 PM CST (12/21) 1:14 AM CST (12/21)
Length of Visible Light 10h 00m
Length of Day
8h 54m
Waxing Gibbous, 65% of the Moon is Illuminated
Dec 21
Waxing Gibbous
Dec 28
Full
Jan 4
Last Quarter
Jan 11
New
Jan 18
First Quarter

Hourly Weather History & Observations

Time (CST) Temp. Windchill Dew Point Humidity Pressure Visibility Wind Dir Wind Speed Gust Speed Precip Events Conditions
12:53 AM 19.0 °F 1.6 °F 12.9 °F 77% 29.94 in 8.0 mi NW 24.2 mph 32.2 mph N/A   Overcast
1:35 AM 17.6 °F -1.3 °F 12.2 °F 79% 29.92 in 7.0 mi NW 27.6 mph 35.7 mph N/A   Scattered Clouds
1:53 AM 17.1 °F -1.0 °F 10.9 °F 77% 29.98 in 10.0 mi NW 24.2 mph 31.1 mph N/A   Clear
2:53 AM 16.0 °F -1.3 °F 9.0 °F 74% 30.02 in 10.0 mi NNW 20.7 mph 27.6 mph N/A   Partly Cloudy
3:53 AM 15.1 °F -2.9 °F 9.0 °F 77% 30.05 in 10.0 mi NW 21.9 mph 25.3 mph N/A   Clear
4:53 AM 14.0 °F -4.3 °F 8.1 °F 77% 30.08 in 10.0 mi NW 21.9 mph 26.5 mph N/A   Clear
5:53 AM 14.0 °F -3.0 °F 6.1 °F 71% 30.11 in 10.0 mi NNW 18.4 mph - N/A   Clear
6:53 AM 12.9 °F -3.4 °F 5.0 °F 71% 30.14 in 10.0 mi NNW 16.1 mph - N/A   Clear
7:53 AM 14.0 °F -0.8 °F 6.1 °F 71% 30.15 in 10.0 mi NNW 13.8 mph - N/A   Clear
8:53 AM 14.0 °F -3.0 °F 6.1 °F 71% 30.19 in 10.0 mi NNW 18.4 mph - N/A   Clear
9:53 AM 15.1 °F -1.6 °F 6.1 °F 68% 30.21 in 10.0 mi NW 18.4 mph - N/A   Clear
10:53 AM 17.1 °F 0.1 °F 7.0 °F 65% 30.22 in 10.0 mi NW 20.7 mph 25.3 mph N/A   Clear
11:53 AM 19.0 °F 5.0 °F 9.0 °F 65% 30.21 in 10.0 mi NNW 15.0 mph - N/A   Clear
12:53 PM 19.9 °F 7.3 °F 9.0 °F 62% 30.21 in 10.0 mi NW 12.7 mph - N/A   Clear
1:53 PM 21.0 °F 7.6 °F 9.0 °F 60% 30.22 in 10.0 mi NW 15.0 mph - N/A   Clear
2:53 PM 21.9 °F 8.7 °F 9.0 °F 58% 30.23 in 10.0 mi NW 15.0 mph - N/A   Clear
3:53 PM 21.0 °F 10.6 °F 9.0 °F 60% 30.25 in 10.0 mi NNW 9.2 mph - N/A   Clear
4:53 PM 21.0 °F 9.3 °F 10.0 °F 63% 30.28 in 10.0 mi NW 11.5 mph - N/A   Clear
5:53 PM 18.0 °F 9.8 °F 9.0 °F 68% 30.29 in 10.0 mi North 5.8 mph - N/A   Clear
6:53 PM 17.1 °F 4.3 °F 8.1 °F 68% 30.32 in 10.0 mi West 11.5 mph - N/A   Clear
7:53 PM 15.1 °F 9.4 °F 8.1 °F 74% 30.32 in 10.0 mi West 3.5 mph - N/A   Clear
8:53 PM 12.9 °F - 8.1 °F 81% 30.31 in 10.0 mi Calm Calm - N/A   Clear
9:53 PM 12.0 °F - 8.1 °F 84% 30.31 in 10.0 mi Calm Calm - N/A   Clear
10:53 PM 10.9 °F - 8.1 °F 88% 30.30 in 10.0 mi Calm Calm - N/A   Clear
11:53 PM 12.0 °F 5.9 °F 8.1 °F 84% 30.28 in 10.0 mi South 3.5 mph - N/A   Clear